,,PA_Meas_PMT16A,,PR_Meas_QMR101_102,,RH_Meas_QMH101,,SR_Meas_QMS101,,TA_Meas_QMH101,,GenWind,,GenWind,
time,status,PA,status,PR,status,RH,status,SR,status,TA,status,DirAvg,status,SpdAvg,
2012-07-28, 00:00:04,VALID,918.759,VALID,0,VALID,91.7097,VALID,0,VALID,19.6863,VALID,345,VALID,0,
2012-07-28, 00:01:04,VALID,918.768,VALID,0,VALID,91.6258,VALID,0,VALID,19.7253,VALID,345,VALID,0,
2012-07-28, 00:02:04,VALID,918.731,VALID,0,VALID,91.7021,VALID,0,VALID,19.7448,VALID,345,VALID,0,
2012-07-28, 00:03:04,VALID,918.777,VALID,0,VALID,91.7478,VALID,0,VALID,19.7643,VALID,345,VALID,0,
2012-07-28, 00:04:04,VALID,918.747,VALID,0,VALID,91.664,VALID,0,VALID,19.8033,VALID,345,VALID,0,
2012-07-28, 00:05:04,VALID,918.753,VALID,0,VALID,91.4886,VALID,0,VALID,19.8033,VALID,345,VALID,0,
2012-07-28, 00:06:04,VALID,918.726,VALID,0,VALID,91.4886,VALID,0,VALID,19.8228,VALID,345,VALID,0,
2012-07-28, 00:07:04,VALID,918.742,VALID,0,VALID,91.359,VALID,0.107441,VALID,19.8423,VALID,345,VALID,0,
2012-07-28, 00:08:04,VALID,918.731,VALID,0,VALID,91.3819,VALID,0,VALID,19.8423,VALID,345,VALID,0,
2012-07-28, 00:09:04,VALID,918.722,VALID,0,VALID,91.4581,VALID,0,VALID,19.8618,VALID,345,VALID,0,
2012-07-28, 00:10:04,VALID,918.679,VALID,0,VALID,91.237,VALID,0,VALID,19.8018,VALID,345,VALID,0,
2012-07-28, 00:11:04,VALID,918.642,VALID,0,VALID,91.7326,VALID,0,VALID,19.7238,VALID,345,VALID,0,
2012-07-28, 00:12:04,VALID,918.617,VALID,0,VALID,92.2357,VALID,0,VALID,19.7253,VALID,345,VALID,0,
2012-07-28, 00:13:04,VALID,918.59,VALID,0,VALID,92.3729,VALID,0,VALID,19.6458,VALID,345,VALID,0,
2012-07-28, 00:14:04,VALID,918.563,VALID,0,VALID,92.3577,VALID,0,VALID,19.6068,VALID,345,VALID,0,
2012-07-28, 00:15:04,VALID,918.536,VALID,0,VALID,92.0146,VALID,0,VALID,19.6473,VALID,345,VALID,0,
2012-07-28, 00:16:04,VALID,918.532,VALID,0,VALID,91.6945,VALID,0,VALID,19.6668,VALID,345,VALID,0,
2012-07-28, 00:17:04,VALID,918.544,VALID,0,VALID,91.42,VALID,0.107441,VALID,19.7058,VALID,345,VALID,0,
2012-07-28, 00:18:04,VALID,918.538,VALID,0,VALID,91.2599,VALID,0.107441,VALID,19.7253,VALID,345,VALID,0,
2012-07-28, 00:19:04,VALID,918.565,VALID,0,VALID,91.1379,VALID,0,VALID,19.7448,VALID,345,VALID,0,
2012-07-28, 00:20:04,VALID,918.534,VALID,0,VALID,90.9626,VALID,0,VALID,19.7643,VALID,345,VALID,0,
2012-07-28, 00:21:04,VALID,918.484,VALID,0,VALID,90.8635,VALID,0,VALID,19.7838,VALID,345,VALID,0,
2012-07-28, 00:22:04,VALID,918.436,VALID,0,VALID,90.7263,VALID,0,VALID,19.8033,VALID,345,VALID,0,
2012-07-28, 00:23:04,VALID,918.418,VALID,0,VALID,90.5967,VALID,0,VALID,19.7643,VALID,345,VALID,0,
2012-07-28, 00:24:04,VALID,918.417,VALID,0,VALID,90.894,VALID,0,VALID,19.7433,VALID,345,VALID,0,
2012-07-28, 00:25:04,VALID,918.43,VALID,0,VALID,91.0617,VALID,0,VALID,19.7238,VALID,345,VALID,0,
2012-07-28, 00:26:04,VALID,918.431,VALID,0,VALID,91.2752,VALID,0.107441,VALID,19.7238,VALID,345,VALID,0,
2012-07-28, 00:27:04,VALID,918.427,VALID,0,VALID,91.5344,VALID,0.107441,VALID,19.7238,VALID,345,VALID,0,
2012-07-28, 00:28:04,VALID,918.409,VALID,0,VALID,91.6487,VALID,0,VALID,19.7433,VALID,345,VALID,0,
2012-07-28, 00:29:04,VALID,918.418,VALID,0,VALID,91.5115,VALID,0,VALID,19.7643,VALID,345,VALID,0,
2012-07-28, 00:30:05,VALID,918.392,VALID,0,VALID,91.3514,VALID,0.107441,VALID,19.7238,VALID,345,VALID,0,
2012-07-28, 00:31:05,VALID,918.345,VALID,0,VALID,91.5953,VALID,0,VALID,19.6848,VALID,345,VALID,0,
2012-07-28, 00:32:05,VALID,918.318,VALID,0,VALID,91.9613,VALID,0.107441,VALID,19.6653,VALID,345,VALID,0,
2012-07-28, 00:33:05,VALID,918.311,VALID,0,VALID,92.5711,VALID,0.107441,VALID,19.7448,VALID,345,VALID,0,
2012-07-28, 00:34:05,VALID,918.308,VALID,0,VALID,92.1214,VALID,0,VALID,19.7043,VALID,345,VALID,0,
2012-07-28, 00:35:05,VALID,918.296,VALID,0,VALID,92.1823,VALID,0.107441,VALID,19.7448,VALID,345,VALID,0,
2012-07-28, 00:36:05,VALID,918.289,VALID,0,VALID,92.4415,VALID,0.107441,VALID,19.7238,VALID,345,VALID,0,
2012-07-28, 00:37:05,VALID,918.28,VALID,0,VALID,92.777,VALID,0.107441,VALID,19.7628,VALID,345,VALID,0,
2012-07-28, 00:38:05,VALID,918.229,VALID,0,VALID,92.8075,VALID,0,VALID,19.8018,VALID,345,VALID,0,
2012-07-28, 00:39:05,VALID,918.214,VALID,0,VALID,92.655,VALID,0.107441,VALID,19.8408,VALID,345,VALID,0,
2012-07-28, 00:40:05,VALID,918.205,VALID,0,VALID,92.5711,VALID,0.107441,VALID,19.8798,VALID,345,VALID,0,
2012-07-28, 00:41:05,VALID,918.148,VALID,0,VALID,91.5267,VALID,0,VALID,19.8618,VALID,345,VALID,0,
2012-07-28, 00:42:05,VALID,918.111,VALID,0,VALID,91.5572,VALID,0,VALID,19.8423,VALID,345,VALID,0,
2012-07-28, 00:43:05,VALID,918.132,VALID,0,VALID,91.603,VALID,0,VALID,19.8228,VALID,345,VALID,0,
2012-07-28, 00:44:05,VALID,918.145,VALID,0,VALID,91.7097,VALID,0,VALID,19.8228,VALID,345,VALID,0,
2012-07-28, 00:45:05,VALID,918.141,VALID,0,VALID,92.1061,VALID,0,VALID,19.8033,VALID,345,VALID,0,
2012-07-28, 00:46:05,VALID,918.082,VALID,0,VALID,92.1519,VALID,0,VALID,19.7643,VALID,345,VALID,0,
2012-07-28, 00:47:05,VALID,918.05,VALID,0,VALID,92.3806,VALID,0,VALID,19.7838,VALID,345,VALID,0,
2012-07-28, 00:48:05,VALID,917.999,VALID,0,VALID,92.4415,VALID,0,VALID,19.7643,VALID,345,VALID,0,
2012-07-28, 00:49:05,VALID,917.965,VALID,0,VALID,92.0527,VALID,0,VALID,19.7253,VALID,345,VALID,0,
2012-07-28, 00:50:05,VALID,917.945,VALID,0,VALID,92.3882,VALID,0,VALID,19.6863,VALID,345,VALID,0,
2012-07-28, 00:51:05,VALID,917.937,VALID,0,VALID,92.6093,VALID,0,VALID,19.6083,VALID,345,VALID,0,
2012-07-28, 00:52:05,VALID,917.953,VALID,0,VALID,92.9447,VALID,0,VALID,19.5693,VALID,345,VALID,0,
2012-07-28, 00:53:05,VALID,917.941,VALID,0,VALID,93.2954,VALID,0,VALID,19.5498,VALID,345,VALID,0,
2012-07-28, 00:54:05,VALID,917.958,VALID,0,VALID,93.6308,VALID,0,VALID,19.5693,VALID,345,VALID,0,
2012-07-28, 00:55:05,VALID,917.936,VALID,0,VALID,94.1263,VALID,0,VALID,19.6293,VALID,345,VALID,0,
2012-07-28, 00:56:05,VALID,917.885,VALID,0,VALID,94.1339,VALID,0,VALID,19.6473,VALID,345,VALID,0,
2012-07-28, 00:57:05,VALID,917.904,VALID,0,VALID,94.1416,VALID,0,VALID,19.7058,VALID,345,VALID,0,
2012-07-28, 00:58:05,VALID,917.865,VALID,0,VALID,94.3321,VALID,0,VALID,19.7643,VALID,345,VALID,0,
2012-07-28, 00:59:05,VALID,917.876,VALID,0,VALID,94.294,VALID,0,VALID,19.8228,VALID,345,VALID,0,
2012-07-28, 01:00:05,VALID,917.832,VALID,0,VALID,94.0272,VALID,0,VALID,19.8618,VALID,345,VALID,0,
2012-07-28, 01:01:05,VALID,917.8,VALID,0,VALID,93.8061,VALID,0,VALID,19.8813,VALID,345,VALID,0,
2012-07-28, 01:02:05,VALID,917.794,VALID,0,VALID,93.5927,VALID,0,VALID,19.9023,VALID,345,VALID,0,
2012-07-28, 01:03:05,VALID,917.761,VALID,0,VALID,93.6232,VALID,0,VALID,19.9398,VALID,345,VALID,0,
2012-07-28, 01:04:05,VALID,917.732,VALID,0,VALID,93.6384,VALID,0,VALID,19.9203,VALID,345,VALID,0,
2012-07-28, 01:05:05,VALID,917.698,VALID,0,VALID,93.6613,VALID,0,VALID,19.9788,VALID,345,VALID,0,
2012-07-28, 01:06:05,VALID,917.685,VALID,0,VALID,93.2344,VALID,0,VALID,19.9788,VALID,345,VALID,0,
2012-07-28, 01:07:05,VALID,917.632,VALID,0,VALID,93.5393,VALID,0,VALID,19.9593,VALID,346,VALID,0,
2012-07-28, 01:08:05,VALID,917.573,VALID,0,VALID,93.7909,VALID,0,VALID,19.9984,VALID,1,VALID,0,
2012-07-28, 01:09:05,VALID,917.588,VALID,0,VALID,93.8519,VALID,0,VALID,19.9593,VALID,1,VALID,0,
2012-07-28, 01:10:05,VALID,917.539,VALID,0,VALID,93.9891,VALID,0,VALID,19.9593,VALID,1,VALID,0,
2012-07-28, 01:11:05,VALID,917.537,VALID,0,VALID,94.2254,VALID,0,VALID,19.9773,VALID,1,VALID,0,
2012-07-28, 01:12:05,VALID,917.501,VALID,0,VALID,94.3398,VALID,0.107441,VALID,19.9968,VALID,343,VALID,0,
2012-07-28, 01:13:05,VALID,917.516,VALID,0,VALID,94.3626,VALID,0,VALID,19.9968,VALID,360,VALID,0,
2012-07-28, 01:14:05,VALID,917.502,VALID,0,VALID,94.2254,VALID,0.107441,VALID,19.9968,VALID,360,VALID,0,
2012-07-28, 01:15:05,VALID,917.526,VALID,0,VALID,94.1187,VALID,0.107441,VALID,19.9773,VALID,360,VALID,0,
2012-07-28, 01:16:05,VALID,917.519,VALID,0,VALID,93.8747,VALID,0,VALID,19.9383,VALID,320,VALID,0,
2012-07-28, 01:17:05,VALID,917.535,VALID,0,VALID,93.6842,VALID,0,VALID,19.9203,VALID,297,VALID,0,
2012-07-28, 01:18:05,VALID,917.509,VALID,0,VALID,93.4097,VALID,0.107441,VALID,19.8603,VALID,297,VALID,0,
2012-07-28, 01:19:05,VALID,917.48,VALID,0,VALID,93.2572,VALID,0,VALID,19.7823,VALID,297,VALID,0,
2012-07-28, 01:20:05,VALID,917.448,VALID,0,VALID,93.2649,VALID,0,VALID,19.7238,VALID,297,VALID,0,
2012-07-28, 01:21:05,VALID,917.48,VALID,0,VALID,93.2801,VALID,0,VALID,19.6863,VALID,297,VALID,0,
2012-07-28, 01:22:05,VALID,917.434,VALID,0,VALID,93.3945,VALID,0.107441,VALID,19.6263,VALID,297,VALID,0,
2012-07-28, 01:23:05,VALID,917.41,VALID,0,VALID,93.5469,VALID,0.107441,VALID,19.5858,VALID,297,VALID,0,
2012-07-28, 01:24:05,VALID,917.418,VALID,0,VALID,93.6384,VALID,0.107441,VALID,19.6068,VALID,297,VALID,0,
2012-07-28, 01:25:05,VALID,917.415,VALID,0,VALID,93.646,VALID,0,VALID,19.5678,VALID,297,VALID,0,
2012-07-28, 01:26:05,VALID,917.381,VALID,0,VALID,93.6537,VALID,0,VALID,19.5483,VALID,297,VALID,0,
2012-07-28, 01:27:05,VALID,917.345,VALID,0,VALID,93.6079,VALID,0.107441,VALID,19.5093,VALID,297,VALID,0,
2012-07-28, 01:28:05,VALID,917.336,VALID,0,VALID,93.8595,VALID,0,VALID,19.5093,VALID,337,VALID,0,
2012-07-28, 01:29:05,VALID,917.328,VALID,0,VALID,93.7223,VALID,0.107441,VALID,19.4508,VALID,337,VALID,0,
2012-07-28, 01:30:05,VALID,917.324,VALID,0,VALID,93.7909,VALID,0.107441,VALID,19.3923,VALID,337,VALID,0,
2012-07-28, 01:31:05,VALID,917.363,VALID,0,VALID,93.8138,VALID,0.107441,VALID,19.3533,VALID,337,VALID,0,
2012-07-28, 01:32:05,VALID,917.337,VALID,0,VALID,94.1721,VALID,0.107441,VALID,19.3338,VALID,337,VALID,0,
2012-07-28, 01:33:05,VALID,917.36,VALID,0,VALID,94.355,VALID,0.107441,VALID,19.3338,VALID,337,VALID,0,
2012-07-28, 01:34:05,VALID,917.391,VALID,0,VALID,94.5075,VALID,0.107441,VALID,19.3533,VALID,337,VALID,0,
2012-07-28, 01:35:05,VALID,917.369,VALID,0,VALID,94.5532,VALID,0,VALID,19.3338,VALID,337,VALID,0,
2012-07-28, 01:36:05,VALID,917.356,VALID,0,VALID,94.6371,VALID,0,VALID,19.3533,VALID,337,VALID,0,
2012-07-28, 01:37:05,VALID,917.342,VALID,0,VALID,94.6981,VALID,0.107441,VALID,19.3533,VALID,337,VALID,0,
2012-07-28, 01:38:05,VALID,917.317,VALID,0,VALID,94.7438,VALID,0,VALID,19.3533,VALID,337,VALID,0,
2012-07-28, 01:39:05,VALID,917.317,VALID,0,VALID,94.7591,VALID,0.107441,VALID,19.3923,VALID,337,VALID,0,
2012-07-28, 01:40:05,VALID,917.296,VALID,0,VALID,94.7362,VALID,0.107441,VALID,19.4313,VALID,337,VALID,0,
2012-07-28, 01:41:05,VALID,917.322,VALID,0,VALID,94.4922,VALID,0,VALID,19.3937,VALID,337,VALID,0,
2012-07-28, 01:42:05,VALID,917.301,VALID,0,VALID,94.4846,VALID,0,VALID,19.4132,VALID,337,VALID,0,
2012-07-28, 01:43:05,VALID,917.333,VALID,0,VALID,94.5609,VALID,0,VALID,19.4523,VALID,337,VALID,0,
2012-07-28, 01:44:05,VALID,917.338,VALID,0,VALID,94.4694,VALID,0,VALID,19.4718,VALID,337,VALID,0,
2012-07-28, 01:45:05,VALID,917.301,VALID,0,VALID,94.3017,VALID,0,VALID,19.4732,VALID,337,VALID,0,
2012-07-28, 01:46:05,VALID,917.288,VALID,0,VALID,94.1721,VALID,0,VALID,19.4718,VALID,337,VALID,0,
2012-07-28, 01:47:05,VALID,917.292,VALID,0,VALID,94.1263,VALID,0,VALID,19.4327,VALID,337,VALID,0,
2012-07-28, 01:48:05,VALID,917.26,VALID,0,VALID,94.1111,VALID,0,VALID,19.3937,VALID,88,VALID,0,
2012-07-28, 01:49:05,VALID,917.238,VALID,0,VALID,94.4084,VALID,0,VALID,19.3923,VALID,100,VALID,0,
2012-07-28, 01:50:05,VALID,917.195,VALID,0,VALID,94.2026,VALID,0,VALID,19.3757,VALID,100,VALID,0,
2012-07-28, 01:51:05,VALID,917.204,VALID,0,VALID,94.5761,VALID,0,VALID,19.3547,VALID,31,VALID,0,
2012-07-28, 01:52:05,VALID,917.162,VALID,0,VALID,94.7286,VALID,0,VALID,19.3742,VALID,31,VALID,0,
2012-07-28, 01:53:05,VALID,917.17,VALID,0,VALID,94.8963,VALID,0,VALID,19.4132,VALID,31,VALID,0,
2012-07-28, 01:54:05,VALID,917.194,VALID,0,VALID,95.0106,VALID,0,VALID,19.4327,VALID,31,VALID,0,
2012-07-28, 01:55:05,VALID,917.199,VALID,0,VALID,95.0106,VALID,0,VALID,19.4732,VALID,31,VALID,0,
2012-07-28, 01:56:05,VALID,917.24,VALID,0,VALID,95.064,VALID,0,VALID,19.4718,VALID,31,VALID,0,
2012-07-28, 01:57:05,VALID,917.199,VALID,0,VALID,95.0488,VALID,0,VALID,19.5303,VALID,31,VALID,0,
2012-07-28, 01:58:05,VALID,917.212,VALID,0,VALID,94.8963,VALID,0,VALID,19.5498,VALID,31,VALID,0,
2012-07-28, 01:59:05,VALID,917.182,VALID,0,VALID,94.6371,VALID,0,VALID,19.5303,VALID,31,VALID,0,
2012-07-28, 02:00:05,VALID,917.173,VALID,0,VALID,94.4389,VALID,0,VALID,19.5303,VALID,31,VALID,0,
2012-07-28, 02:01:05,VALID,917.182,VALID,0,VALID,94.2254,VALID,0,VALID,19.5317,VALID,31,VALID,0,
2012-07-28, 02:02:05,VALID,917.168,VALID,0,VALID,94.1873,VALID,0,VALID,19.5303,VALID,31,VALID,0,
2012-07-28, 02:03:05,VALID,917.162,VALID,0,VALID,94.1721,VALID,0,VALID,19.5108,VALID,31,VALID,0,
2012-07-28, 02:04:05,VALID,917.161,VALID,0,VALID,94.1263,VALID,0,VALID,19.5317,VALID,31,VALID,0,
2012-07-28, 02:05:05,VALID,917.146,VALID,0,VALID,94.2407,VALID,0,VALID,19.5303,VALID,31,VALID,0,
2012-07-28, 02:06:05,VALID,917.17,VALID,0,VALID,94.3398,VALID,0,VALID,19.5317,VALID,31,VALID,0,
2012-07-28, 02:07:05,VALID,917.15,VALID,0,VALID,94.4389,VALID,0,VALID,19.4913,VALID,31,VALID,0,
2012-07-28, 02:08:05,VALID,917.15,VALID,0,VALID,94.6295,VALID,0,VALID,19.5303,VALID,31,VALID,0,
2012-07-28, 02:09:05,VALID,917.131,VALID,0,VALID,94.7896,VALID,0,VALID,19.5693,VALID,31,VALID,0,
2012-07-28, 02:10:05,VALID,917.118,VALID,0,VALID,94.6828,VALID,0,VALID,19.5693,VALID,31,VALID,0,
2012-07-28, 02:11:05,VALID,917.107,VALID,0,VALID,94.6066,VALID,0.107441,VALID,19.5873,VALID,96,VALID,0,
2012-07-28, 02:12:05,VALID,917.061,VALID,0,VALID,94.5304,VALID,0,VALID,19.6068,VALID,96,VALID,0,
2012-07-28, 02:13:05,VALID,917.075,VALID,0,VALID,94.2102,VALID,0,VALID,19.5288,VALID,96,VALID,0,
2012-07-28, 02:14:05,VALID,917.07,VALID,0,VALID,94.0425,VALID,0.107441,VALID,19.4703,VALID,96,VALID,0,
2012-07-28, 02:15:05,VALID,917.049,VALID,0,VALID,93.9586,VALID,0,VALID,19.3728,VALID,96,VALID,0,
2012-07-28, 02:16:05,VALID,917.052,VALID,0,VALID,94.0196,VALID,0,VALID,19.3143,VALID,96,VALID,0,
2012-07-28, 02:17:05,VALID,917.034,VALID,0,VALID,93.9281,VALID,0,VALID,19.2363,VALID,96,VALID,0,
2012-07-28, 02:18:05,VALID,916.999,VALID,0,VALID,94.1187,VALID,0.107441,VALID,19.2182,VALID,113,VALID,0,
2012-07-28, 02:19:05,VALID,916.977,VALID,0,VALID,94.3321,VALID,0,VALID,19.1597,VALID,113,VALID,0,
2012-07-28, 02:20:05,VALID,916.986,VALID,0,VALID,94.4084,VALID,0,VALID,19.0817,VALID,113,VALID,0,
2012-07-28, 02:21:05,VALID,916.937,VALID,0,VALID,94.5304,VALID,0,VALID,19.0037,VALID,113,VALID,0,
2012-07-28, 02:22:05,VALID,916.933,VALID,0,VALID,94.6066,VALID,0.107441,VALID,18.9647,VALID,113,VALID,0,
2012-07-28, 02:23:05,VALID,916.921,VALID,0,VALID,94.66,VALID,0,VALID,18.9257,VALID,113,VALID,0,
2012-07-28, 02:24:05,VALID,916.893,VALID,0,VALID,94.7362,VALID,0.107441,VALID,18.8853,VALID,113,VALID,0,
2012-07-28, 02:25:05,VALID,916.871,VALID,0,VALID,94.7133,VALID,0.107441,VALID,18.8853,VALID,113,VALID,0,
2012-07-28, 02:26:05,VALID,916.849,VALID,0,VALID,94.5913,VALID,0,VALID,18.8492,VALID,113,VALID,0,
2012-07-28, 02:27:05,VALID,916.863,VALID,0,VALID,94.881,VALID,0,VALID,18.8102,VALID,113,VALID,0,
2012-07-28, 02:28:05,VALID,916.892,VALID,0,VALID,95.125,VALID,0,VALID,18.8297,VALID,113,VALID,0,
2012-07-28, 02:29:05,VALID,916.886,VALID,0,VALID,95.3308,VALID,0,VALID,18.8492,VALID,113,VALID,0,
2012-07-28, 02:30:05,VALID,916.908,VALID,0,VALID,95.3308,VALID,0,VALID,18.8102,VALID,113,VALID,0,
2012-07-28, 02:31:05,VALID,916.94,VALID,0,VALID,95.5367,VALID,0,VALID,18.8297,VALID,113,VALID,0,
2012-07-28, 02:32:05,VALID,916.979,VALID,0,VALID,95.5976,VALID,0,VALID,18.8297,VALID,113,VALID,0,
2012-07-28, 02:33:05,VALID,916.972,VALID,0,VALID,95.6434,VALID,0,VALID,18.8102,VALID,113,VALID,0,
2012-07-28, 02:34:05,VALID,916.995,VALID,0,VALID,95.6815,VALID,0,VALID,18.8297,VALID,113,VALID,0,
2012-07-28, 02:35:05,VALID,916.954,VALID,0,VALID,95.6739,VALID,0,VALID,18.8102,VALID,113,VALID,0,
2012-07-28, 02:36:05,VALID,916.944,VALID,0,VALID,95.6434,VALID,0,VALID,18.8102,VALID,113,VALID,0,
2012-07-28, 02:37:05,VALID,916.888,VALID,0,VALID,95.8645,VALID,0,VALID,18.8687,VALID,113,VALID,0,
2012-07-28, 02:38:05,VALID,916.872,VALID,0,VALID,96.0017,VALID,0,VALID,18.9272,VALID,113,VALID,0,
2012-07-28, 02:39:05,VALID,916.831,VALID,0,VALID,95.9788,VALID,0,VALID,18.9062,VALID,113,VALID,0,
2012-07-28, 02:40:05,VALID,916.778,VALID,0,VALID,95.9712,VALID,0,VALID,18.9077,VALID,113,VALID,0,
2012-07-28, 02:41:05,VALID,916.804,VALID,0,VALID,95.9331,VALID,0,VALID,18.9062,VALID,113,VALID,0,
2012-07-28, 02:42:05,VALID,916.789,VALID,0,VALID,95.7501,VALID,0,VALID,18.8882,VALID,113,VALID,0,
2012-07-28, 02:43:05,VALID,916.76,VALID,0,VALID,95.651,VALID,0,VALID,18.8477,VALID,113,VALID,0,
2012-07-28, 02:44:05,VALID,916.773,VALID,0,VALID,95.5595,VALID,0,VALID,18.8087,VALID,113,VALID,0,
2012-07-28, 02:45:05,VALID,916.761,VALID,0,VALID,95.3842,VALID,0,VALID,18.7503,VALID,113,VALID,0,
2012-07-28, 02:46:05,VALID,916.758,VALID,0,VALID,95.3232,VALID,0,VALID,18.7308,VALID,113,VALID,0,
2012-07-28, 02:47:05,VALID,916.744,VALID,0,VALID,95.4299,VALID,0,VALID,18.7503,VALID,113,VALID,0,
2012-07-28, 02:48:05,VALID,916.752,VALID,0,VALID,95.4528,VALID,0,VALID,18.7503,VALID,113,VALID,0,
2012-07-28, 02:49:05,VALID,916.699,VALID,0,VALID,95.5443,VALID,0,VALID,18.7517,VALID,113,VALID,0,
2012-07-28, 02:50:05,VALID,916.691,VALID,0,VALID,95.7958,VALID,0,VALID,18.8087,VALID,113,VALID,0,
2012-07-28, 02:51:05,VALID,916.675,VALID,0,VALID,95.8645,VALID,0,VALID,18.7892,VALID,113,VALID,0,
2012-07-28, 02:52:05,VALID,916.662,VALID,0,VALID,95.9864,VALID,0,VALID,18.8492,VALID,113,VALID,0,
2012-07-28, 02:53:05,VALID,916.642,VALID,0,VALID,96.1236,VALID,0,VALID,18.8867,VALID,113,VALID,0,
2012-07-28, 02:54:05,VALID,916.621,VALID,0,VALID,96.238,VALID,0,VALID,18.9452,VALID,113,VALID,0,
2012-07-28, 02:55:05,VALID,916.623,VALID,0,VALID,96.2837,VALID,0,VALID,18.9452,VALID,113,VALID,0,
2012-07-28, 02:56:05,VALID,916.678,VALID,0,VALID,96.299,VALID,0,VALID,18.9647,VALID,113,VALID,0,
2012-07-28, 02:57:05,VALID,916.667,VALID,0,VALID,96.1846,VALID,0,VALID,18.9257,VALID,113,VALID,0,
2012-07-28, 02:58:05,VALID,916.716,VALID,0,VALID,96.1465,VALID,0,VALID,18.9257,VALID,113,VALID,0,
2012-07-28, 02:59:05,VALID,916.686,VALID,0,VALID,96.0855,VALID,0,VALID,18.8867,VALID,113,VALID,0,
2012-07-28, 03:00:05,VALID,916.693,VALID,0,VALID,96.1846,VALID,0,VALID,18.9062,VALID,113,VALID,0,
2012-07-28, 03:01:05,VALID,916.67,VALID,0,VALID,96.2151,VALID,0,VALID,18.9272,VALID,113,VALID,0,
2012-07-28, 03:02:05,VALID,916.662,VALID,0,VALID,96.2914,VALID,0,VALID,18.9662,VALID,113,VALID,0,
2012-07-28, 03:03:05,VALID,916.66,VALID,0,VALID,96.36,VALID,0,VALID,19.0052,VALID,113,VALID,0,
2012-07-28, 03:04:05,VALID,916.679,VALID,0,VALID,96.2533,VALID,0,VALID,18.9857,VALID,113,VALID,0,
2012-07-28, 03:05:05,VALID,916.706,VALID,0,VALID,96.3829,VALID,0,VALID,19.0037,VALID,113,VALID,0,
2012-07-28, 03:06:05,VALID,916.715,VALID,0,VALID,96.4515,VALID,0,VALID,19.0622,VALID,113,VALID,0,
2012-07-28, 03:07:05,VALID,916.707,VALID,0,VALID,96.4667,VALID,0,VALID,19.1012,VALID,113,VALID,0,
2012-07-28, 03:08:05,VALID,916.732,VALID,0,VALID,96.421,VALID,0,VALID,19.1207,VALID,113,VALID,0,
2012-07-28, 03:09:05,VALID,916.716,VALID,0,VALID,96.4362,VALID,0,VALID,19.1597,VALID,113,VALID,0,
2012-07-28, 03:10:05,VALID,916.745,VALID,0,VALID,96.3142,VALID,0,VALID,19.1207,VALID,113,VALID,0,
2012-07-28, 03:11:05,VALID,916.742,VALID,0,VALID,96.36,VALID,0,VALID,19.1597,VALID,113,VALID,0,
2012-07-28, 03:12:05,VALID,916.74,VALID,0,VALID,96.2456,VALID,0,VALID,19.1012,VALID,113,VALID,0,
2012-07-28, 03:13:05,VALID,916.757,VALID,0,VALID,96.1694,VALID,0,VALID,19.0832,VALID,113,VALID,0,
2012-07-28, 03:14:05,VALID,916.755,VALID,0,VALID,96.1236,VALID,0,VALID,19.0037,VALID,113,VALID,0,
2012-07-28, 03:15:05,VALID,916.709,VALID,0,VALID,96.0322,VALID,0,VALID,18.9452,VALID,113,VALID,0,
2012-07-28, 03:16:04,VALID,916.699,VALID,0,VALID,95.9407,VALID,0,VALID,18.8867,VALID,113,VALID,0,
2012-07-28, 03:17:04,VALID,916.707,VALID,0,VALID,95.8721,VALID,0,VALID,18.8087,VALID,113,VALID,0,
2012-07-28, 03:18:04,VALID,916.699,VALID,0,VALID,95.834,VALID,0,VALID,18.7697,VALID,113,VALID,0,
2012-07-28, 03:19:04,VALID,916.724,VALID,0,VALID,95.9331,VALID,0,VALID,18.7308,VALID,113,VALID,0,
2012-07-28, 03:20:04,VALID,916.744,VALID,0,VALID,95.9559,VALID,0,VALID,18.6918,VALID,113,VALID,0,
2012-07-28, 03:21:04,VALID,916.746,VALID,0,VALID,95.8263,VALID,0,VALID,18.6138,VALID,113,VALID,0,
2012-07-28, 03:22:04,VALID,916.697,VALID,0,VALID,96.1694,VALID,0,VALID,18.6918,VALID,113,VALID,0,
2012-07-28, 03:23:04,VALID,916.735,VALID,0,VALID,96.3752,VALID,0,VALID,18.7308,VALID,113,VALID,0,
2012-07-28, 03:24:04,VALID,916.749,VALID,0,VALID,96.4667,VALID,0.107441,VALID,18.7907,VALID,113,VALID,0,
2012-07-28, 03:25:04,VALID,916.716,VALID,0,VALID,96.5124,VALID,0,VALID,18.7892,VALID,113,VALID,0,
2012-07-28, 03:26:04,VALID,916.729,VALID,0,VALID,96.4591,VALID,0,VALID,18.7697,VALID,113,VALID,0,
2012-07-28, 03:27:04,VALID,916.681,VALID,0,VALID,96.4438,VALID,0,VALID,18.7308,VALID,113,VALID,0,
2012-07-28, 03:28:04,VALID,916.681,VALID,0,VALID,96.3295,VALID,0.107441,VALID,18.6918,VALID,113,VALID,0,
2012-07-28, 03:29:04,VALID,916.659,VALID,0,VALID,96.0322,VALID,0,VALID,18.5163,VALID,113,VALID,0,
2012-07-28, 03:30:04,VALID,916.669,VALID,0,VALID,96.3142,VALID,0,VALID,18.5553,VALID,113,VALID,0,
2012-07-28, 03:31:04,VALID,916.687,VALID,0,VALID,96.7335,VALID,0,VALID,18.7113,VALID,113,VALID,0,
2012-07-28, 03:32:04,VALID,916.719,VALID,0,VALID,96.7183,VALID,0,VALID,18.7503,VALID,113,VALID,0,
2012-07-28, 03:33:04,VALID,916.74,VALID,0,VALID,96.6344,VALID,0,VALID,18.7503,VALID,113,VALID,0,
2012-07-28, 03:34:04,VALID,916.716,VALID,0,VALID,96.6725,VALID,0,VALID,18.7308,VALID,113,VALID,0,
2012-07-28, 03:35:04,VALID,916.732,VALID,0,VALID,96.7793,VALID,0,VALID,18.7892,VALID,113,VALID,0,
2012-07-28, 03:36:04,VALID,916.745,VALID,0,VALID,96.8021,VALID,0.107441,VALID,18.8477,VALID,113,VALID,0,
2012-07-28, 03:37:04,VALID,916.733,VALID,0,VALID,96.8021,VALID,0,VALID,18.8672,VALID,114,VALID,0,
2012-07-28, 03:38:04,VALID,916.73,VALID,0,VALID,96.642,VALID,0,VALID,18.8087,VALID,114,VALID,0,
2012-07-28, 03:39:04,VALID,916.725,VALID,0,VALID,96.6725,VALID,0,VALID,18.7892,VALID,113,VALID,0,
2012-07-28, 03:40:04,VALID,916.713,VALID,0,VALID,96.6649,VALID,0,VALID,18.7503,VALID,113,VALID,0,
2012-07-28, 03:41:04,VALID,916.676,VALID,0,VALID,96.6497,VALID,0,VALID,18.7322,VALID,113,VALID,0,
2012-07-28, 03:42:04,VALID,916.705,VALID,0,VALID,96.6497,VALID,0,VALID,18.6918,VALID,113,VALID,0,
2012-07-28, 03:43:04,VALID,916.687,VALID,0,VALID,96.6344,VALID,0,VALID,18.6528,VALID,113,VALID,0,
2012-07-28, 03:44:04,VALID,916.709,VALID,0,VALID,96.7107,VALID,0.107441,VALID,18.6723,VALID,113,VALID,0,
2012-07-28, 03:45:04,VALID,916.749,VALID,0,VALID,96.7564,VALID,0,VALID,18.7113,VALID,113,VALID,0,
2012-07-28, 03:46:04,VALID,916.787,VALID,0,VALID,96.7793,VALID,0,VALID,18.6918,VALID,113,VALID,0,
2012-07-28, 03:47:04,VALID,916.79,VALID,0,VALID,96.8021,VALID,0,VALID,18.7517,VALID,113,VALID,0,
2012-07-28, 03:48:04,VALID,916.758,VALID,0,VALID,96.7793,VALID,0,VALID,18.7113,VALID,113,VALID,0,
2012-07-28, 03:49:04,VALID,916.72,VALID,0,VALID,96.7183,VALID,0,VALID,18.6528,VALID,113,VALID,0,
2012-07-28, 03:50:04,VALID,916.725,VALID,0,VALID,96.5734,VALID,0,VALID,18.5734,VALID,113,VALID,0,
2012-07-28, 03:51:04,VALID,916.692,VALID,0,VALID,96.3905,VALID,0,VALID,18.4578,VALID,113,VALID,0,
2012-07-28, 03:52:04,VALID,916.674,VALID,0,VALID,96.642,VALID,0,VALID,18.4773,VALID,113,VALID,0,
2012-07-28, 03:53:04,VALID,916.638,VALID,0,VALID,96.7716,VALID,0,VALID,18.5163,VALID,114,VALID,0,
2012-07-28, 03:54:04,VALID,916.655,VALID,0,VALID,96.7716,VALID,0,VALID,18.4968,VALID,114,VALID,0,
2012-07-28, 03:55:04,VALID,916.655,VALID,0,VALID,96.8784,VALID,0,VALID,18.5372,VALID,114,VALID,0,
2012-07-28, 03:56:04,VALID,916.647,VALID,0,VALID,96.8098,VALID,0,VALID,18.5177,VALID,113,VALID,0,
2012-07-28, 03:57:04,VALID,916.639,VALID,0,VALID,96.8098,VALID,0,VALID,18.4773,VALID,113,VALID,0,